Total_Precipitation_Accumulation
0.00 0.00 0.01 0.02 0.01 0.01 0.02 0.01 0.00 0.00 0.00 0.00 0.00 0.00 0.00 0.03 0.05 0.04 0.03 0.02 0.06 0.06 0.02 0.00 0.00 0.00 0.00 0.01 0.03 0.04 0.03 0.07 0.14 0.27 0.30 0.26 0.16 0.11 0.10 0.05 0.06 0.10 0.20 0.26 0.28 0.34 0.16 0.03 0.02 0.04 0.02 0.02 0.01 0.00
0.00 0.00 0.00 0.01 0.00 0.00 0.00 0.00 0.00 0.00 0.00 0.00 0.00 0.00 0.00 0.02 0.06 0.04 0.03 0.02 0.04 0.06 0.03 0.00 0.00 0.00 0.00 0.00 0.03 0.09 0.05 0.07 0.27 0.41 0.43 0.41 0.37 0.26 0.13 0.10 0.05 0.09 0.10 0.12 0.19 0.24 0.13 0.08 0.04 0.01 0.02 0.02 0.02 0.01
0.00 0.00 0.00 0.00 0.01 0.01 0.00 0.00 0.00 0.00 0.00 0.00 0.00 0.00 0.00 0.01 0.06 0.03 0.06 0.01 0.02 0.05 0.02 0.01 0.00 0.00 0.00 0.00 0.01 0.16 0.06 0.09 0.19 0.35 0.41 0.29 0.22 0.18 0.17 0.13 0.10 0.05 0.02 0.03 0.03 0.01 0.02 0.03 0.04 0.01 0.01 0.03 0.02 0.00
0.01 0.00 0.00 0.00 0.01 0.01 0.00 0.00 0.00 0.00 0.00 0.00 0.00 0.00 0.00 0.00 0.07 0.04 0.08 0.01 0.04 0.06 0.04 0.01 0.00 0.00 0.00 0.00 0.00 0.01 0.02 0.06 0.16 0.23 0.37 0.25 0.13 0.09 0.07 0.05 0.04 0.03 0.02 0.02 0.01 0.01 0.01 0.01 0.03 0.03 0.01 0.00 0.01 0.02
0.01 0.00 0.00 0.01 0.01 0.00 0.00 0.00 0.00 0.00 0.00 0.00 0.00 0.00 0.00 0.02 0.12 0.11 0.23 0.14 0.10 0.11 0.10 0.03 0.02 0.00 0.00 0.00 0.00 0.01 0.01 0.02 0.08 0.17 0.15 0.07 0.06 0.06 0.03 0.02 0.00 0.00 0.00 0.02 0.01 0.01 0.01 0.00 0.00 0.00 0.00 0.00 0.00 0.00
0.00 0.00 0.00 0.01 0.00 0.00 0.00 0.00 0.00 0.00 0.00 0.00 0.00 0.00 0.03 0.08 0.04 0.02 0.01 0.01 0.02 0.03 0.07 0.01 0.01 0.00 0.00 0.00 0.00 0.00 0.00 0.01 0.03 0.05 0.03 0.02 0.01 0.08 0.05 0.01 0.00 0.00 0.00 0.00 0.00 0.00 0.00 0.00 0.00 0.00 0.00 0.00 0.00 0.00
0.00 0.00 0.00 0.01 0.00 0.00 0.00 0.00 0.00 0.00 0.00 0.00 0.01 0.02 0.04 0.02 0.07 0.03 0.04 0.04 0.00 0.03 0.09 0.02 0.00 0.00 0.00 0.00 0.00 0.00 0.00 0.01 0.02 0.04 0.01 0.00 0.00 0.06 0.06 0.01 0.00 0.00 0.00 0.00 0.00 0.00 0.00 0.00 0.00 0.00 0.00 0.00 0.00 0.00
0.00 0.00 0.00 0.00 0.00 0.00 0.00 0.00 0.00 0.00 0.00 0.00 0.00 0.00 0.00 0.00 0.02 0.04 0.01 0.00 0.01 0.04 0.05 0.03 0.01 0.01 0.01 0.01 0.05 0.03 0.07 0.07 0.06 0.02 0.01 0.01 0.02 0.07 0.08 0.00 0.00 0.00 0.00 0.00 0.00 0.00 0.00 0.00 0.00 0.00 0.00 0.00 0.00 0.00
0.00 0.00 0.00 0.00 0.00 0.00 0.00 0.00 0.00 0.00 0.00 0.00 0.00 0.00 0.01 0.01 0.04 0.03 0.00 0.01 0.05 0.07 0.08 0.05 0.02 0.05 0.03 0.04 0.10 0.09 0.11 0.11 0.06 0.06 0.02 0.08 0.06 0.08 0.01 0.00 0.00 0.00 0.00 0.00 0.00 0.00 0.00 0.00 0.00 0.00 0.00 0.00 0.01 0.00
0.00 0.00 0.00 0.00 0.00 0.00 0.00 0.00 0.01 0.00 0.00 0.00 0.01 0.02 0.02 0.01 0.00 0.02 0.07 0.09 0.14 0.12 0.08 0.03 0.01 0.01 0.01 0.03 0.05 0.08 0.09 0.05 0.07 0.03 0.04 0.08 0.04 0.04 0.07 0.07 0.08 0.07 0.03 0.04 0.11 0.07 0.05 0.03 0.01 0.00 0.00 0.00 0.02 0.02
0.00 0.01 0.01 0.01 0.01 0.00 0.00 0.00 0.00 0.00 0.00 0.02 0.04 0.05 0.04 0.01 0.04 0.10 0.14 0.09 0.09 0.07 0.03 0.01 0.01 0.02 0.02 0.02 0.05 0.06 0.07 0.07 0.08 0.06 0.08 0.08 0.04 0.03 0.07 0.18 0.17 0.15 0.07 0.05 0.05 0.02 0.01 0.01 0.01 0.01 0.00 0.00 0.01 0.01
0.00 0.01 0.02 0.02 0.02 0.00 0.00 0.01 0.00 0.01 0.03 0.03 0.03 0.02 0.03 0.07 0.11 0.10 0.05 0.03 0.04 0.03 0.05 0.05 0.10 0.05 0.07 0.03 0.06 0.07 0.06 0.04 0.05 0.12 0.12 0.04 0.07 0.07 0.18 0.32 0.17 0.05 0.02 0.00 0.00 0.00 0.00 0.00 0.00 0.00 0.00 0.00 0.00 0.01
0.01 0.01 0.02 0.03 0.02 0.00 0.00 0.01 0.01 0.00 0.00 0.02 0.02 0.02 0.06 0.08 0.08 0.04 0.05 0.08 0.11 0.07 0.07 0.05 0.19 0.16 0.10 0.08 0.11 0.08 0.07 0.04 0.06 0.11 0.06 0.05 0.09 0.06 0.06 0.04 0.01 0.00 0.00 0.00 0.00 0.00 0.01 0.01 0.01 0.01 0.01 0.00 0.00 0.00
0.00 0.00 0.01 0.02 0.01 0.01 0.01 0.01 0.03 0.02 0.03 0.04 0.03 0.02 0.03 0.03 0.01 0.01 0.04 0.07 0.08 0.09 0.16 0.28 0.47 0.38 0.18 0.13 0.06 0.08 0.05 0.08 0.08 0.04 0.07 0.15 0.08 0.02 0.01 0.00 0.00 0.00 0.00 0.00 0.00 0.01 0.02 0.02 0.01 0.01 0.01 0.00 0.00 0.00
0.00 0.00 0.00 0.01 0.01 0.02 0.01 0.05 0.15 0.23 0.18 0.10 0.08 0.03 0.00 0.00 0.01 0.01 0.01 0.02 0.04 0.20 0.32 0.56 0.44 0.27 0.22 0.12 0.05 0.04 0.07 0.06 0.03 0.06 0.17 0.09 0.01 0.00 0.00 0.00 0.00 0.00 0.00 0.01 0.01 0.02 0.02 0.02 0.02 0.01 0.01 0.01 0.00 0.00
0.00 0.00 0.00 0.00 0.00 0.01 0.03 0.10 0.32 0.44 0.41 0.11 0.04 0.01 0.00 0.01 0.01 0.01 0.01 0.06 0.13 0.16 0.18 0.35 0.35 0.17 0.10 0.03 0.06 0.03 0.02 0.01 0.06 0.15 0.10 0.02 0.00 0.00 0.00 0.00 0.00 0.00 0.00 0.01 0.01 0.02 0.02 0.02 0.03 0.03 0.02 0.01 0.01 0.00
0.00 0.00 0.00 0.02 0.03 0.05 0.15 0.37 0.47 0.45 0.26 0.10 0.02 0.00 0.00 0.00 0.01 0.02 0.04 0.07 0.11 0.15 0.21 0.35 0.38 0.21 0.11 0.10 0.04 0.03 0.05 0.10 0.15 0.08 0.02 0.00 0.00 0.00 0.00 0.00 0.00 0.00 0.00 0.01 0.00 0.01 0.02 0.03 0.04 0.05 0.04 0.03 0.03 0.04
0.00 0.00 0.01 0.03 0.09 0.33 0.35 0.43 0.53 0.35 0.15 0.01 0.00 0.00 0.01 0.02 0.03 0.03 0.04 0.06 0.08 0.18 0.23 0.33 0.27 0.18 0.14 0.08 0.08 0.19 0.27 0.17 0.08 0.02 0.00 0.00 0.00 0.00 0.00 0.00 0.00 0.00 0.01 0.01 0.01 0.01 0.01 0.01 0.02 0.03 0.05 0.06 0.06 0.06
0.01 0.01 0.02 0.06 0.15 0.37 0.42 0.33 0.21 0.19 0.02 0.00 0.00 0.00 0.01 0.02 0.02 0.02 0.02 0.02 0.11 0.28 0.37 0.15 0.16 0.12 0.10 0.15 0.19 0.11 0.05 0.03 0.01 0.00 0.00 0.00 0.00 0.00 0.00 0.00 0.01 0.01 0.01 0.01 0.01 0.01 0.01 0.02 0.01 0.01 0.03 0.04 0.07 0.09
0.07 0.10 0.11 0.16 0.38 0.47 0.35 0.17 0.14 0.07 0.02 0.02 0.01 0.01 0.04 0.02 0.02 0.01 0.01 0.01 0.09 0.25 0.21 0.09 0.04 0.06 0.09 0.06 0.04 0.01 0.01 0.01 0.01 0.01 0.01 0.01 0.01 0.00 0.00 0.01 0.01 0.01 0.02 0.02 0.02 0.02 0.02 0.03 0.02 0.03 0.04 0.05 0.07 0.08
0.04 0.03 0.05 0.23 0.48 0.42 0.25 0.08 0.08 0.04 0.02 0.02 0.01 0.03 0.02 0.01 0.01 0.01 0.01 0.01 0.07 0.09 0.06 0.06 0.08 0.07 0.03 0.02 0.01 0.01 0.02 0.01 0.01 0.01 0.01 0.01 0.01 0.00 0.01 0.01 0.02 0.01 0.01 0.01 0.02 0.02 0.03 0.04 0.05 0.06 0.07 0.08 0.07 0.06
0.07 0.13 0.23 0.29 0.43 0.39 0.27 0.04 0.03 0.04 0.05 0.03 0.02 0.02 0.02 0.02 0.02 0.02 0.02 0.05 0.05 0.04 0.03 0.02 0.01 0.01 0.00 0.01 0.02 0.03 0.03 0.01 0.00 0.00 0.00 0.01 0.02 0.03 0.05 0.04 0.02 0.02 0.01 0.01 0.01 0.02 0.03 0.05 0.07 0.10 0.12 0.09 0.05 0.04
0.05 0.12 0.22 0.28 0.36 0.26 0.12 0.02 0.07 0.04 0.07 0.07 0.03 0.04 0.04 0.02 0.02 0.02 0.04 0.04 0.04 0.02 0.01 0.01 0.01 0.01 0.01 0.02 0.03 0.03 0.02 0.01 0.01 0.01 0.02 0.03 0.03 0.03 0.03 0.03 0.02 0.03 0.03 0.02 0.01 0.01 0.02 0.04 0.08 0.12 0.12 0.12 0.09 0.06
0.08 0.21 0.23 0.24 0.24 0.14 0.06 0.07 0.07 0.07 0.11 0.07 0.10 0.05 0.03 0.04 0.02 0.03 0.07 0.08 0.03 0.01 0.00 0.01 0.01 0.01 0.02 0.04 0.05 0.03 0.02 0.01 0.02 0.04 0.05 0.05 0.07 0.08 0.04 0.03 0.03 0.03 0.02 0.02 0.01 0.01 0.01 0.01 0.03 0.05 0.05 0.05 0.04 0.04
0.24 0.17 0.17 0.17 0.15 0.17 0.12 0.06 0.04 0.10 0.14 0.11 0.15 0.12 0.10 0.05 0.04 0.04 0.06 0.05 0.01 0.00 0.00 0.01 0.02 0.03 0.03 0.04 0.03 0.02 0.03 0.04 0.06 0.08 0.09 0.08 0.10 0.09 0.08 0.06 0.03 0.02 0.01 0.03 0.04 0.03 0.02 0.02 0.02 0.02 0.01 0.02 0.01 0.01
0.13 0.05 0.12 0.19 0.25 0.23 0.24 0.19 0.14 0.12 0.13 0.13 0.11 0.07 0.04 0.06 0.06 0.08 0.09 0.08 0.03 0.01 0.01 0.02 0.03 0.03 0.02 0.05 0.04 0.03 0.04 0.05 0.07 0.09 0.12 0.08 0.10 0.12 0.12 0.10 0.08 0.07 0.01 0.01 0.02 0.03 0.03 0.03 0.01 0.01 0.03 0.02 0.01 0.02
0.20 0.11 0.09 0.04 0.04 0.08 0.14 0.17 0.16 0.13 0.11 0.09 0.09 0.07 0.08 0.06 0.06 0.09 0.05 0.03 0.02 0.01 0.00 0.01 0.02 0.03 0.04 0.06 0.06 0.06 0.05 0.06 0.08 0.08 0.07 0.06 0.05 0.05 0.07 0.07 0.08 0.06 0.02 0.01 0.02 0.02 0.03 0.03 0.02 0.01 0.02 0.02 0.02 0.03
0.19 0.08 0.03 0.02 0.01 0.01 0.02 0.02 0.04 0.05 0.05 0.02 0.03 0.04 0.07 0.07 0.09 0.07 0.04 0.02 0.01 0.00 0.00 0.00 0.01 0.01 0.02 0.04 0.06 0.07 0.07 0.07 0.06 0.05 0.04 0.03 0.02 0.01 0.01 0.02 0.02 0.01 0.02 0.01 0.02 0.02 0.01 0.02 0.03 0.02 0.01 0.02 0.01 0.01
0.05 0.03 0.00 0.00 0.01 0.01 0.03 0.04 0.09 0.05 0.02 0.02 0.03 0.05 0.07 0.04 0.04 0.02 0.01 0.00 0.00 0.00 0.00 0.01 0.01 0.01 0.02 0.03 0.04 0.06 0.08 0.08 0.07 0.06 0.05 0.05 0.08 0.11 0.03 0.01 0.01 0.02 0.03 0.02 0.00 0.00 0.00 0.01 0.01 0.01 0.02 0.03 0.02 0.01
0.00 0.00 0.00 0.00 0.00 0.01 0.05 0.02 0.03 0.01 0.00 0.01 0.01 0.00 0.00 0.01 0.02 0.02 0.01 0.01 0.01 0.02 0.02 0.02 0.02 0.03 0.03 0.03 0.04 0.04 0.08 0.09 0.06 0.06 0.05 0.04 0.07 0.05 0.03 0.03 0.03 0.03 0.02 0.03 0.05 0.02 0.00 0.00 0.01 0.01 0.01 0.02 0.03 0.03
0.01 0.01 0.01 0.02 0.02 0.03 0.02 0.00 0.00 0.00 0.00 0.00 0.00 0.00 0.01 0.02 0.03 0.02 0.01 0.01 0.01 0.02 0.01 0.01 0.02 0.03 0.04 0.05 0.07 0.05 0.06 0.06 0.02 0.02 0.03 0.03 0.05 0.07 0.07 0.06 0.05 0.04 0.03 0.02 0.03 0.06 0.07 0.04 0.04 0.05 0.04 0.04 0.05 0.06
0.01 0.02 0.02 0.01 0.00 0.00 0.01 0.01 0.00 0.00 0.00 0.00 0.02 0.01 0.02 0.05 0.06 0.04 0.02 0.01 0.01 0.01 0.02 0.03 0.04 0.04 0.05 0.08 0.08 0.08 0.06 0.04 0.03 0.03 0.04 0.05 0.06 0.07 0.06 0.05 0.04 0.04 0.03 0.03 0.03 0.05 0.08 0.11 0.12 0.08 0.06 0.06 0.06 0.05
0.01 0.01 0.02 0.01 0.01 0.01 0.01 0.00 0.00 0.00 0.01 0.04 0.05 0.02 0.03 0.06 0.06 0.04 0.01 0.03 0.05 0.05 0.05 0.06 0.07 0.07 0.08 0.09 0.09 0.08 0.06 0.06 0.05 0.04 0.05 0.06 0.07 0.07 0.07 0.06 0.05 0.05 0.05 0.06 0.07 0.08 0.09 0.09 0.09 0.08 0.08 0.07 0.06 0.06